Wind_Speed
39 39 43 42 45 48 43 34 29 27 28 27 24 23 23 21 22 26 24 21 25 25 23 22 19 17 17 19 19 20 20 23 27 30 31 31 30 32 34 36 38 42 44 43 42 41 39 35 31
41 36 38 42 46 51 38 34 31 33 30 26 24 26 24 21 24 27 24 21 24 25 26 20 18 17 16 19 18 18 17 19 23 27 30 29 29 33 35 34 37 38 39 43 44 44 43 37 34
41 42 37 38 46 54 44 39 36 34 31 28 28 28 27 23 26 29 23 24 25 24 23 15 14 13 14 17 17 16 16 16 20 23 28 29 29 31 34 35 34 35 36 38 42 43 43 41 38
44 42 39 43 48 51 44 38 35 34 33 30 27 28 29 25 27 28 27 26 25 25 22 18 17 14 16 17 17 17 16 13 16 20 24 29 29 30 32 33 34 33 35 37 38 41 43 42 37
43 43 43 44 52 56 46 41 35 35 38 38 33 29 31 30 28 32 31 28 25 25 23 21 19 18 18 18 17 19 17 15 15 18 22 27 28 27 29 32 34 32 34 33 35 37 39 41 40
46 45 45 48 54 57 54 44 36 34 39 41 34 32 31 33 32 33 32 29 26 25 24 23 20 17 18 20 17 18 23 19 12 17 21 24 26 27 25 30 32 33 33 33 34 36 37 36 38
43 45 47 52 53 56 58 50 47 41 41 38 34 34 33 37 36 35 31 29 26 26 25 23 22 19 19 17 18 18 20 19 16 17 19 22 24 26 23 26 29 30 31 33 34 34 38 35 33
46 41 46 54 56 56 56 52 48 45 43 38 37 34 41 42 41 37 32 29 27 26 27 26 26 22 21 21 20 19 18 22 17 15 17 21 23 22 23 22 26 29 30 36 33 31 31 34 33
48 36 39 50 58 61 61 56 50 43 40 36 38 37 39 47 45 42 35 27 29 26 27 27 25 23 22 25 26 19 19 21 21 16 19 20 24 21 23 22 22 25 26 28 34 32 28 30 34
54 44 46 56 60 64 53 51 49 45 40 40 43 44 38 46 46 43 40 33 31 28 28 27 24 25 23 22 20 20 21 22 21 21 20 21 24 21 22 26 23 24 26 25 32 33 34 29 28
58 50 58 59 61 63 50 47 45 48 50 47 44 42 40 47 50 46 44 41 37 30 31 30 27 27 27 25 25 24 23 23 25 26 27 25 25 23 22 26 26 24 27 27 28 34 36 35 27
65 58 62 65 65 61 54 47 40 40 43 44 43 41 43 47 52 49 47 44 42 35 36 34 30 29 29 29 28 28 25 26 28 32 30 27 26 27 23 28 29 27 29 27 31 35 36 32 32
67 63 68 69 69 63 60 48 45 40 40 46 48 46 42 49 52 53 50 47 47 42 41 39 37 33 33 32 29 30 32 28 30 32 34 33 29 31 27 28 31 31 32 33 31 34 37 39 37
73 68 66 68 71 70 65 58 48 47 48 46 49 50 45 48 55 56 55 54 51 44 45 44 42 39 39 37 37 36 35 32 29 34 35 36 35 32 30 31 33 33 35 35 33 35 36 37 38
84 80 75 70 70 73 73 68 52 60 56 52 52 52 53 49 57 60 60 59 54 49 47 50 48 46 45 42 43 42 39 37 35 34 37 36 40 39 35 35 37 37 37 37 38 39 39 42 42
89 86 82 76 74 71 77 63 68 67 63 62 58 55 56 55 54 57 62 61 59 55 52 53 53 52 51 48 46 46 45 44 42 39 35 37 39 41 39 40 39 41 41 40 39 42 44 44 47
93 81 81 81 78 77 80 65 72 76 75 67 66 62 59 53 50 56 58 61 62 61 57 57 58 58 57 54 50 49 49 49 47 46 42 39 40 42 42 44 43 43 45 43 42 45 46 48 48
92 92 86 85 87 91 90 77 76 82 80 76 71 66 63 58 55 57 58 58 59 61 63 62 61 59 62 61 55 53 54 54 52 51 48 44 41 44 47 46 45 45 46 48 48 46 49 51 51
94 94 97 93 93 96 97 91 85 85 87 80 73 71 65 62 62 60 59 57 56 60 63 66 65 63 62 66 65 61 60 60 58 57 54 50 47 48 46 46 48 49 49 49 50 51 51 53 56
99 100 95 97 102 102 99 97 96 94 91 85 77 74 70 66 66 65 66 63 62 60 58 61 63 65 64 66 69 67 64 63 62 62 59 55 52 49 45 44 45 49 51 52 53 53 55 57 57
102 101 95 98 103 103 108 104 98 97 95 90 84 76 73 69 70 70 70 69 66 61 61 63 64 64 66 68 70 69 66 62 61 62 59 55 51 52 52 52 51 52 55 55 57 56 56 55 57
101 98 103 104 109 104 114 107 107 94 95 97 87 80 75 75 77 76 76 76 75 72 68 63 64 63 64 66 71 70 67 62 60 60 58 57 57 58 59 59 58 59 58 58 57 58 58 59 60
100 104 107 110 112 112 113 110 90 99 99 92 89 91 86 83 80 77 77 80 81 77 74 71 71 69 68 68 70 71 70 66 64 63 61 62 63 65 66 65 64 62 62 59 57 58 62 63 62
105 106 109 112 113 121 103 110 92 94 85 88 94 95 93 93 91 87 84 82 82 79 75 75 76 77 77 77 76 76 76 75 73 72 69 68 69 69 69 69 69 68 67 65 65 64 64 64 66
108 108 109 113 116 105 94 117 92 86 89 85 85 88 91 93 94 97 96 92 89 81 76 75 75 74 77 77 78 78 77 78 76 75 74 74 74 74 73 74 77 76 74 73 73 73 73 73 73
113 113 115 114 112 100 107 124 92 82 93 91 89 89 91 92 94 97 98 98 95 92 89 86 85 84 85 88 86 86 86 85 80 82 81 79 80 82 81 80 81 79 76 82 77 79 78 78 78
117 121 109 116 118 118 116 119 98 92 94 91 91 90 88 90 92 94 96 99 99 98 94 91 88 87 86 88 90 90 90 90 88 87 89 89 90 91 90 90 88 89 89 88 84 79 80 82 81
120 118 121 121 122 122 115 115 103 90 90 94 93 90 90 95 98 98 97 94 92 93 94 95 94 93 90 90 89 90 89 90 91 91 89 87 85 88 88 92 95 93 89 83 82 84 86 85 85
128 123 121 123 124 125 123 116 95 85 92 95 98 98 99 100 100 102 96 95 93 91 91 92 91 89 87 88 89 90 90 88 84 84 86 86 85 87 91 90 87 88 86 84 87 88 89 90 91
131 130 131 131 131 130 126 119 104 93 96 100 101 105 104 102 103 105 102 97 94 92 91 91 91 91 93 93 94 93 93 93 93 92 90 91 94 94 92 91 87 89 90 91 89 90 92 94 94
Wind_Direction
243 247 246 255 260 258 256 256 274 266 266 258 270 260 259 260 261 260 274 269 271 288 295 299 306 322 330 336 343 354 8 7 12 18 20 24 27 35 37 34 32 32 33 31 29 26 21 19 18
235 242 243 251 259 261 259 254 259 249 259 259 256 256 253 256 258 263 270 279 283 286 288 294 304 316 321 326 336 348 5 358 9 15 19 19 23 26 32 35 33 31 29 27 26 26 25 20 18
239 238 241 247 254 257 260 256 256 248 255 259 263 257 259 251 255 266 274 279 279 279 285 300 311 317 332 331 334 339 350 353 4 15 14 15 13 14 18 29 32 26 25 24 21 25 27 25 19
231 230 240 244 249 255 255 256 255 245 246 256 257 267 264 261 259 267 273 277 276 278 286 296 305 307 319 324 327 329 339 340 351 6 10 8 8 12 13 17 24 27 24 18 15 19 23 25 26
238 233 228 238 243 249 248 252 252 251 248 248 250 252 260 257 254 261 268 274 279 279 281 291 297 299 308 316 316 315 325 322 337 356 2 3 3 4 7 11 17 23 22 19 13 7 9 16 21
242 226 224 232 241 246 247 247 252 251 253 256 258 262 262 264 258 258 268 273 277 280 278 284 291 295 295 305 306 313 322 316 318 342 353 360 1 0 357 3 9 12 13 15 11 2 359 2 12
243 239 227 231 246 249 250 247 252 254 254 253 253 258 261 258 257 257 261 267 270 276 278 283 284 283 294 294 305 310 326 316 306 326 341 349 352 356 348 352 0 3 5 6 6 5 359 357 1
243 242 238 236 245 249 244 246 248 251 253 256 257 248 253 253 253 255 255 264 266 272 276 278 281 284 281 284 291 304 318 312 293 309 325 337 344 343 345 339 347 356 355 357 3 4 3 353 348
245 240 243 233 241 247 242 245 247 251 249 250 256 251 242 253 253 256 254 254 262 265 272 274 277 281 284 280 286 299 308 311 297 304 307 321 337 333 336 329 333 343 347 349 354 356 358 355 348
244 240 242 237 239 243 244 245 243 246 249 247 258 259 241 243 251 255 257 251 255 259 269 274 276 276 288 291 287 291 298 301 299 301 297 304 323 323 331 329 319 327 335 336 344 347 349 352 350
241 239 237 241 241 246 250 253 251 251 250 252 254 253 242 241 243 247 253 254 250 254 264 269 275 280 285 284 287 291 289 294 293 294 300 298 305 316 316 322 321 314 323 330 336 341 343 345 345
241 240 239 241 241 245 251 255 254 252 247 245 253 247 246 240 245 246 248 254 256 254 261 266 271 278 284 285 285 288 292 289 292 302 298 293 298 304 300 316 319 310 314 315 324 332 336 338 338
232 241 242 240 244 245 250 252 253 248 246 247 248 250 243 239 239 245 249 249 254 256 258 261 264 271 276 281 283 286 288 285 294 302 301 293 292 296 293 302 307 310 310 307 314 326 329 330 333
237 235 239 245 247 247 248 246 248 246 243 244 240 244 243 239 235 240 245 247 251 254 260 263 265 267 270 272 277 280 284 288 288 290 295 293 289 295 288 295 304 305 304 301 303 317 318 325 324
239 236 238 238 246 250 250 247 248 244 244 242 243 240 242 237 235 239 244 248 251 252 256 262 265 266 266 268 273 276 280 286 289 290 293 287 287 291 290 295 303 303 300 296 296 307 312 316 316
239 240 241 243 242 248 250 244 253 248 246 244 243 244 242 245 242 243 244 248 253 253 253 258 263 267 267 267 269 273 277 282 287 289 291 285 284 291 293 294 297 297 297 295 289 298 304 309 311
240 243 246 244 246 243 249 242 252 251 247 245 246 247 246 248 249 247 248 249 252 254 255 255 260 264 267 268 269 272 276 280 285 287 288 291 283 284 286 288 293 296 294 293 289 291 295 301 304
244 243 242 242 245 245 245 243 245 251 248 247 245 250 249 247 245 246 245 247 252 255 256 255 256 260 267 271 273 274 276 278 281 283 288 288 289 284 282 286 291 293 292 290 293 288 290 295 298
237 239 241 240 241 245 247 243 244 245 248 244 244 245 246 250 251 251 250 248 248 250 255 255 257 260 262 267 270 271 273 275 279 283 287 287 286 285 285 282 284 287 291 293 294 285 286 291 294
241 240 240 240 241 242 243 244 244 245 247 249 246 246 246 245 247 251 251 252 251 250 251 256 258 261 263 263 266 270 272 275 279 280 283 286 286 284 284 285 285 286 288 286 290 289 287 288 290
238 240 241 242 240 240 243 241 243 245 245 249 251 249 248 246 247 247 250 250 252 255 255 255 256 259 263 266 269 271 272 272 274 278 280 282 283 283 284 285 287 290 291 294 293 289 287 289 291
240 240 240 241 242 242 242 240 240 242 245 244 249 253 254 254 250 250 250 250 248 248 249 248 253 257 262 264 268 272 274 275 273 274 277 279 281 283 284 285 287 287 290 294 291 287 287 288 289
239 240 239 241 242 241 242 244 239 243 243 247 248 252 252 253 253 254 255 254 253 250 253 256 258 261 262 264 264 268 271 272 272 274 278 280 281 284 285 286 286 288 289 290 288 289 290 287 288
241 241 242 242 242 242 241 249 237 242 247 246 247 248 251 252 252 253 255 256 257 255 256 257 259 260 263 265 269 270 271 273 275 277 276 277 280 283 284 284 284 287 288 289 288 290 287 286 289
247 246 248 247 246 247 246 247 241 242 245 247 249 248 247 247 249 251 254 258 260 259 257 258 261 262 264 266 267 270 274 275 277 277 278 278 281 282 282 284 284 287 287 287 289 289 289 288 288
246 245 245 247 249 247 243 246 241 238 241 245 247 248 249 250 252 254 255 255 258 260 261 262 262 263 263 266 269 271 272 274 275 276 277 278 281 280 282 282 282 285 283 289 288 287 288 288 288
243 243 246 246 246 246 242 245 239 238 238 240 246 250 253 255 255 253 254 254 255 257 260 261 261 263 265 267 269 270 270 270 272 274 276 278 278 279 281 282 284 286 286 286 287 287 287 290 288
242 244 244 245 247 249 246 247 243 238 242 240 242 245 247 249 250 251 252 255 257 258 259 261 263 264 265 267 268 269 271 274 276 277 278 279 279 280 282 282 285 287 288 288 286 286 289 288 287
241 241 244 246 247 248 249 247 245 240 241 241 241 244 243 243 246 248 250 252 254 255 257 259 262 263 263 263 264 267 270 272 271 273 274 275 275 279 282 283 283 286 286 285 286 286 286 286 287
241 241 243 244 246 247 248 248 246 243 240 239 239 241 244 247 249 251 251 251 252 252 254 257 259 260 260 261 262 264 267 269 271 270 270 270 273 277 280 280 280 279 279 285 287 287 285 284 284
Height
10858 10859 10860 10858 10855 10854 10860 10870 10875 10875 10877 10882 10883 10883 10881 10882 10880 10880 10880 10880 10879 10878 10879 10878 10876 10875 10873 10871 10871 10869 10866 10864 10861 10858 10854 10851 10847 10844 10839 10835 10831 10827 10822 10818 10814 10810 10804 10800 10796
10850 10853 10854 10854 10849 10843 10858 10865 10869 10869 10871 10875 10878 10878 10879 10879 10878 10877 10878 10877 10876 10876 10876 10875 10874 10872 10871 10869 10868 10867 10865 10863 10860 10857 10853 10851 10847 10844 10840 10836 10832 10828 10824 10820 10815 10811 10806 10802 10797
10843 10847 10849 10849 10842 10836 10850 10858 10863 10865 10866 10870 10873 10873 10876 10877 10875 10874 10874 10874 10874 10873 10873 10872 10871 10869 10868 10867 10866 10865 10863 10862 10859 10856 10853 10849 10847 10844 10840 10836 10833 10829 10825 10821 10816 10812 10808 10803 10799
10837 10841 10844 10844 10834 10833 10844 10849 10856 10861 10862 10863 10867 10869 10871 10874 10875 10871 10872 10871 10871 10870 10869 10869 10868 10867 10866 10865 10864 10862 10861 10860 10858 10855 10852 10849 10846 10843 10840 10836 10833 10829 10826 10822 10818 10815 10811 10806 10802
10828 10832 10837 10835 10828 10826 10838 10842 10849 10855 10855 10857 10862 10864 10867 10870 10870 10867 10867 10867 10867 10866 10866 10866 10866 10865 10863 10863 10861 10860 10859 10858 10856 10853 10851 10848 10845 10842 10839 10835 10832 10829 10826 10822 10819 10815 10812 10808 10804
10819 10824 10829 10827 10821 10821 10825 10838 10842 10847 10849 10852 10859 10859 10861 10862 10862 10862 10863 10863 10863 10862 10862 10863 10862 10862 10860 10860 10859 10857 10856 10855 10853 10851 10849 10846 10844 10841 10838 10834 10831 10828 10826 10822 10818 10814 10811 10807 10803
10813 10818 10822 10819 10815 10814 10815 10831 10834 10839 10843 10846 10853 10854 10853 10853 10855 10856 10859 10859 10859 10858 10858 10858 10858 10859 10858 10857 10856 10855 10853 10851 10850 10848 10846 10843 10841 10839 10836 10833 10829 10826 10824 10821 10817 10813 10809 10805 10801
10805 10812 10815 10815 10806 10803 10812 10818 10826 10831 10834 10841 10842 10848 10844 10845 10847 10849 10854 10855 10853 10853 10852 10854 10854 10855 10855 10853 10852 10851 10850 10848 10846 10845 10843 10841 10838 10836 10834 10831 10828 10824 10821 10820 10817 10813 10809 10805 10801
10797 10809 10807 10805 10798 10791 10805 10810 10817 10824 10831 10832 10832 10837 10841 10835 10838 10842 10847 10851 10848 10849 10848 10849 10850 10851 10851 10849 10849 10847 10846 10844 10843 10841 10840 10838 10836 10834 10831 10828 10826 10823 10819 10816 10813 10811 10808 10805 10801
10788 10799 10797 10790 10785 10781 10798 10804 10810 10817 10823 10826 10826 10828 10835 10832 10831 10835 10838 10845 10844 10845 10844 10844 10846 10846 10846 10845 10844 10844 10842 10841 10839 10838 10836 10834 10832 10830 10828 10825 10823 10821 10818 10814 10810 10807 10805 10803 10800
10777 10790 10781 10778 10777 10777 10792 10798 10806 10810 10814 10817 10821 10823 10827 10826 10826 10828 10832 10835 10839 10841 10840 10840 10841 10841 10841 10841 10840 10840 10839 10837 10836 10834 10832 10830 10828 10826 10824 10822 10819 10817 10815 10812 10808 10805 10801 10798 10796
10764 10774 10772 10765 10765 10772 10782 10789 10801 10801 10803 10807 10810 10816 10818 10820 10817 10821 10825 10829 10831 10834 10833 10833 10834 10835 10835 10835 10835 10835 10834 10833 10831 10829 10827 10826 10824 10822 10819 10818 10815 10813 10811 10808 10805 10802 10798 10794 10791
10755 10761 10759 10756 10757 10766 10771 10783 10785 10796 10796 10798 10801 10804 10810 10812 10812 10811 10817 10821 10822 10826 10825 10826 10827 10829 10829 10830 10830 10830 10829 10829 10827 10824 10822 10820 10819 10817 10815 10813 10810 10808 10805 10802 10800 10797 10794 10791 10788
10735 10742 10749 10752 10750 10753 10761 10769 10778 10784 10784 10787 10790 10793 10799 10803 10805 10803 10806 10808 10813 10820 10818 10818 10820 10823 10822 10824 10824 10824 10823 10822 10821 10818 10816 10814 10812 10812 10810 10808 10805 10802 10800 10797 10794 10791 10788 10785 10782
10715 10727 10730 10742 10740 10741 10745 10754 10774 10768 10770 10774 10778 10783 10786 10791 10794 10796 10797 10800 10805 10811 10813 10809 10812 10813 10815 10816 10816 10816 10815 10815 10815 10813 10811 10809 10806 10805 10804 10801 10799 10797 10794 10791 10789 10786 10783 10779 10776
10697 10708 10723 10733 10729 10730 10723 10755 10749 10754 10757 10761 10766 10770 10775 10780 10787 10791 10793 10794 10797 10802 10805 10803 10803 10802 10804 10807 10808 10807 10807 10806 10807 10806 10805 10803 10801 10798 10796 10795 10793 10790 10788 10785 10782 10779 10776 10773 10769
10685 10705 10715 10711 10715 10717 10710 10744 10731 10730 10736 10749 10755 10761 10768 10775 10781 10782 10785 10789 10790 10792 10796 10797 10794 10793 10792 10793 10797 10797 10797 10797 10799 10797 10797 10796 10794 10792 10789 10786 10785 10782 10780 10778 10775 10772 10768 10765 10762
10677 10687 10694 10701 10694 10691 10695 10721 10717 10710 10717 10727 10740 10751 10759 10767 10771 10770 10775 10779 10782 10785 10784 10785 10785 10785 10778 10780 10785 10787 10788 10789 10789 10788 10788 10787 10786 10784 10781 10778 10777 10774 10772 10769 10766 10763 10760 10756 10753
10643 10655 10668 10678 10671 10669 10680 10696 10702 10697 10695 10711 10726 10735 10747 10756 10758 10760 10763 10767 10772 10774 10773 10771 10775 10778 10778 10773 10773 10776 10776 10777 10778 10778 10777 10777 10777 10774 10772 10770 10768 10765 10763 10760 10757 10753 10750 10747 10743
10622 10632 10652 10651 10647 10647 10654 10675 10678 10683 10689 10698 10713 10722 10731 10737 10744 10747 10749 10752 10756 10759 10765 10766 10765 10764 10764 10763 10758 10761 10764 10766 10767 10765 10766 10767 10766 10764 10761 10760 10758 10756 10753 10751 10748 10745 10742 10738 10735
10601 10610 10632 10624 10617 10627 10631 10643 10659 10670 10682 10691 10698 10712 10720 10725 10729 10732 10734 10737 10740 10747 10749 10751 10751 10752 10751 10750 10747 10746 10749 10754 10754 10753 10754 10754 10753 10752 10749 10747 10746 10744 10741 10739 10736 10733 10731 10729 10725
10582 10602 10594 10593 10587 10610 10588 10623 10636 10666 10673 10675 10691 10700 10708 10712 10712 10714 10717 10719 10723 10730 10732 10737 10736 10738 10739 10738 10733 10734 10736 10741 10741 10742 10743 10743 10741 10739 10738 10736 10735 10733 10731 10728 10724 10721 10718 10715 10712
10566 10561 10563 10561 10567 10574 10579 10593 10658 10645 10657 10678 10686 10684 10689 10691 10694 10699 10700 10701 10705 10714 10720 10725 10724 10725 10725 10723 10722 10722 10723 10726 10729 10732 10733 10731 10729 10726 10724 10723 10722 10720 10719 10717 10714 10710 10707 10702 10700
10537 10540 10539 10539 10547 10533 10598 10580 10640 10637 10657 10657 10660 10667 10671 10673 10677 10681 10680 10680 10685 10700 10709 10711 10712 10711 10709 10707 10707 10710 10710 10712 10715 10719 10720 10717 10713 10712 10709 10708 10706 10706 10706 10704 10700 10697 10693 10689 10686
10519 10524 10525 10517 10517 10558 10598 10541 10612 10634 10635 10640 10643 10649 10652 10652 10657 10661 10662 10665 10669 10682 10691 10695 10696 10698 10693 10692 10693 10694 10697 10695 10700 10701 10703 10703 10699 10695 10693 10692 10690 10692 10690 10688 10685 10682 10679 10675 10671
10491 10494 10495 10500 10512 10548 10539 10497 10597 10626 10604 10616 10620 10624 10630 10637 10641 10643 10645 10649 10653 10657 10666 10675 10679 10681 10681 10675 10677 10679 10680 10679 10684 10682 10684 10684 10681 10679 10677 10674 10675 10676 10672 10670 10668 10664 10662 10658 10655
10469 10456 10498 10475 10479 10486 10503 10501 10567 10589 10595 10606 10608 10612 10618 10618 10617 10620 10621 10627 10635 10640 10648 10654 10659 10663 10664 10659 10658 10660 10661 10662 10667 10669 10667 10666 10663 10661 10660 10658 10657 10656 10655 10652 10647 10645 10642 10639 10635
10440 10453 10451 10448 10455 10456 10486 10491 10534 10577 10582 10586 10591 10597 10597 10592 10588 10590 10595 10610 10621 10627 10631 10634 10638 10643 10645 10643 10638 10638 10642 10645 10650 10651 10649 10645 10643 10640 10641 10641 10639 10637 10635 10630 10627 10624 10621 10617 10614
10411 10418 10423 10425 10429 10435 10446 10471 10528 10558 10557 10560 10563 10562 10561 10564 10565 10565 10587 10594 10602 10607 10612 10613 10618 10622 10624 10622 10621 10621 10625 10629 10630 10630 10628 10625 10623 10623 10623 10622 10620 10617 10616 10611 10606 10603 10599 10596 10591
10384 10396 10400 10395 10403 10407 10422 10445 10496 10528 10525 10520 10530 10534 10539 10546 10550 10556 10564 10576 10583 10589 10593 10594 10599 10603 10601 10603 10605 10605 10605 10608 10607 10611 10611 10607 10608 10607 10606 10605 10602 10601 10597 10592 10586 10581 10577 10572 10568